Regional Weather Roundup
Issued by NWS

Home | Current Version | Previous Version | Text Only | Print | Product List | Glossary Off
Versions: 1 2 3 4 5 6 7 8 9 10 11 12 13 14 15 16 17 18 19 20 21 22 23 24 25 26 27 28 29 30 31 32 33 34 35 36 37 38 39 40 41 42 43 44 45 46 47 48 49 50

819
ASUS43 KMPX 252110
RWRMN
WEATHER ROUNDUP FOR MINNESOTA
NATIONAL WEATHER SERVICE TWIN CITIES/CHANHASSEN MN
400 PM CDT WED MAY 25 2016


NOTE: "FAIR" INDICATES FEW OR NO CLOUDS BELOW 12,000 FEET WITH NO
SIGNIFICANT WEATHER AND/OR OBSTRUCTIONS TO VISIBILITY. N/A MEANS
CURRENT SKY AND/OR WEATHER CONDITIONS ARE NOT AVAILABLE.

MNZ060>063-068>070-252200-
   Twin Cities Metro

CITY           SKY/WX    TMP DP  RH WIND       PRES   REMARKS
TWIN CITIES    CLOUDY    72  63  73 SE13      29.81F
ST PAUL        CLOUDY    72  64  76 SE9       29.81F
CRYSTAL        CLOUDY    75  64  68 SE8       29.79F
BLAINE         CLOUDY    75  66  73 SE8       29.81F
EDEN PRAIRIE   LGT RAIN  72  66  81 E8        29.80F
SOUTH ST PAUL  CLOUDY    72  66  81 SE7       29.81F
LAKE ELMO      PTSUNNY   70  66  88 SE9       29.84F
$$
MNZ001>005-007-008-013>017-022>024-027-028-252200-
   Northwest Minnesota

CITY           SKY/WX    TMP DP  RH WIND       PRES   REMARKS
BEMIDJI        RAIN      60  57  91 E14       29.79F
HALLOCK        LGT RAIN  59  57  94 E15G22    29.81F
ROSEAU         CLOUDY    59  54  82 E15G21    29.84F
WARROAD        CLOUDY    57  54  88 E12       29.86F
THIEF RVR FALL CLOUDY    61  57  88 E16       29.77F
CROOKSTON      RAIN      59  59 100 E14       29.74F
FOSSTON        HVY RAIN  57  55  94 E10G17    29.74F
DETROIT LAKES  CLOUDY    63  59  88 SE13G22   29.73S
MOORHEAD       MOSUNNY   66  64  94 S9        29.69F
PARK RAPIDS    PTSUNNY   63  58  83 E18G25    29.76F
MAHNOMEN       DRIZZLE   60  57  88 SE13G20   29.72F
$$
MNZ006-009>011-018-025>026-252200-
   North Central Minnesota

CITY           SKY/WX    TMP DP  RH WIND       PRES   REMARKS
BAUDETTE       CLOUDY    63  55  75 E15       29.85F
FLAG ISLAND    CLOUDY    61  55  82 NE17      29.86F
INTL FALLS     CLOUDY    67  55  65 E10       29.88F
WASKISH        LGT RAIN  64  57  77 E6        29.83F
BIG FORK       LGT RAIN  66  55  68 SE5       29.88F
LONGVILLE      CLOUDY    59  55  88 E5        29.83F
CRANE LAKE     CLOUDY    68  50  52 SE3       29.94F
ORR            PTSUNNY   70  48  46 E8        29.87F
COOK           MOSUNNY   68  52  56 E8        29.91F
WALKER         CLOUDY    59  57  92 E10       29.80F
$$
MNZ012-019>021-037-252200-
   Northeast Minnesota

CITY           SKY/WX    TMP DP  RH WIND       PRES   REMARKS
DULUTH         LGT RAIN  49  47  93 E14       29.96R VSB 3/4
ELY            CLOUDY    66  46  48 E7        29.94S
HIBBING        LGT RAIN  60  54  80 S5        29.92S
EVELETH        CLOUDY    64  48  55 SE7       29.93R
DULUTH HARBOR  LGT RAIN  45  45 100 NE18      29.99R
TWO HARBORS    CLOUDY    55  48  76 NE10G18   29.95S
SILVER BAY     CLOUDY    54  48  82 NE12G17   29.97R
GRAND MARAIS     N/A     46  41  82 NE14      30.01F
G MARAIS ARPRT CLOUDY    63  45  51 E6        30.02S
$$
MNZ029>031-032-039>041-046>048-054>057-064-252200-
   West Central Minnesota

CITY           SKY/WX    TMP DP  RH WIND       PRES   REMARKS
FERGUS FALLS   PTSUNNY   72  61  68 SW22      29.69R
WHEATON        MOSUNNY   77  63  61 SW16G23   29.74F
MORRIS         MOSUNNY   77  59  53 SW18G26   29.74S
ALEXANDRIA     PTSUNNY   71  63  75 SE14      29.77F
ELBOW LAKE     FAIR      75  61  63 SW21      29.75S
WADENA         CLOUDY    66  61  82 SE26      29.74F
GLENWOOD       MOSUNNY   72  64  78 S13G18    29.78R
APPLETON       SUNNY     81  55  41 SW14      29.75S
BENSON         MOSUNNY   79  55  44 W20       29.75S
ORTONVILLE     MOSUNNY   75  57  53 SW9G17    29.75F
MADISON        SUNNY     79  55  44 W15G24    29.76F
WILLMAR        FAIR      75  68  78 SE16G24   29.78F
$$
MNZ033>034-036-042>043-049>051-058-059-252200-
   Central Minnesota

CITY           SKY/WX    TMP DP  RH WIND       PRES   REMARKS
ST CLOUD       PTSUNNY   70  66  87 SE7       29.81F
SAUK CENTRE    CLOUDY    71  64  79 SE15G24   29.78F
PAYNESVILLE    CLOUDY    73  63  72 SE14      29.80F
AITKIN         CLOUDY    61  54  77 E9        29.85F
PINE RIVER     PTSUNNY   61  59  94 E17       29.85F
BRAINERD       PTSUNNY   65  58  78 SE12G21   29.82F
STAPLES        CLOUDY    66  59  77 SE13G20   29.79S
LONG PRAIRIE   TSTM      64  61  88 E13G18    29.79F
LITTLE FALLS   CLOUDY    68  61  77 SE14      29.82S
LITCHFIELD     CLOUDY    75  68  78 SE8       29.81F
BUFFALO        PTSUNNY   73  63  72 E6        29.82F
MAPLE LAKE     CLOUDY    73  67  79 SE5       29.82F
HUTCHINSON     CLOUDY    73  67  82 SE8       29.82F
$$
MNZ037-044-045-052-053-252200-
   East Central Minnesota

CITY           SKY/WX    TMP DP  RH WIND       PRES   REMARKS
PRINCETON      CLOUDY    73  64  73 E6        29.82F
MORA           CLOUDY    64  61  88 E6        29.86F
CAMBRIDGE      PTSUNNY   72  61  68 E6        29.82F
RUSH CITY      CLOUDY    64  62  91 NE9       29.86F
MOOSE LAKE     HVY RAIN  48  46  93 NE6       29.92S
HINCKLEY       LGT RAIN  55  55 100 NE12      29.88F
CLOQUET        LGT RAIN  48  46  93 E12G17    29.94S
MCGREGOR       CLOUDY    52  52 100 E16G26    29.90F
$$
MNZ071>073-080-081-089-090-097-098-252200-
   Southwest Minnesota

CITY           SKY/WX    TMP DP  RH WIND       PRES   REMARKS
MONTEVIDEO     PTSUNNY   81  57  44 W12G21    29.78S
GRANITE FALLS  MOSUNNY   82  58  44 SW16      29.79S
CANBY          MOSUNNY   80  60  50 SW14G20   29.79S
MARSHALL       PTSUNNY   77  60  55 SW15G22   29.79S
REDWOOD FALLS  MOSUNNY   80  61  52 S16       29.77F
OLIVIA         PTSUNNY   73  63  68 SE13      29.78F
PIPESTONE      MOSUNNY   75  61  60 W12       29.82S
WINDOM         SUNNY     79  59  50 CALM      29.81S
WORTHINGTON    PTSUNNY   76  62  62 SW13      29.83S
JACKSON        SUNNY     79  54  41 SW15      29.82F
TRACY          MOSUNNY   78  61  55 SW14G22   29.80F
SLAYTON        MOSUNNY   76  57  51 SW17G23   29.82S
$$
MNZ065>067-074>077-082>085-091>093-252200-
   South Central Minnesota

CITY           SKY/WX    TMP DP  RH WIND       PRES   REMARKS
MANKATO        CLOUDY    77  59  53 S6        29.82S
NEW ULM        MOSUNNY   75  64  69 S9        29.80F
ST JAMES       CLOUDY    75  55  50 SW13G18   29.81S
FAIRMONT       CLOUDY    77  54  44 SW15      29.80F
GLENCOE        CLOUDY    75  68  78 SE5       29.80F
FARIBAULT      CLOUDY    70  63  78 S5        29.82F
OWATONNA       CLOUDY    72  64  78 SW10      29.82F
WASECA         CLOUDY    72  64  78 S7        29.84F
ALBERT LEA     CLOUDY    73  63  68 CALM      29.83S
$$
MNZ078>079-086>088-094>096-252200-
   Southeast Minnesota

CITY           SKY/WX    TMP DP  RH WIND       PRES   REMARKS
ROCHESTER      PTSUNNY   71  67  87 S13       29.84F
RED WING       RAIN      68  66  94 CALM      29.81F
STANTON        CLOUDY    71  63  76 S8G17     29.81S
DODGE CENTER   CLOUDY    68  66  94 SW17      29.83F
WINONA         HVY RAIN  70  66  88 CALM      29.82S
AUSTIN         CLOUDY    73  64  73 SW12      29.84S
PRESTON        CLOUDY    72  63  73 S17G25    29.85F
$$
ABBREVIATIONS USED IN REMARKS
   TC - TEMPERATURES IN CELSIUS
  WCI - WIND CHILL INDEX
   HX - HEAT INDEX
  VSB - VISIBILITY
$$




USA.gov is the U.S. government's official web portal to all federal, state and local government web resources and services.